GFSNW_850_temp_333.txt.gz
Temp
7 7 8 8 8 9 9 10 9 11 11 11 13 11 17 19 20 21 20 21 20 20 19 19 20 18 19 20 19 18 18 19 18 21 22 25 24 23 21 17 18 17 16 15
6 7 8 8 8 8 8 10 10 10 11 8 10 14 16 18 20 21 21 21 20 20 19 18 19 19 19 20 18 17 17 17 17 18 19 20 21 21 21 19 17 18 16 15
6 7 7 8 8 8 8 9 8 10 10 11 13 14 15 17 19 19 20 21 20 19 20 20 19 19 20 20 19 18 17 18 18 16 18 20 19 20 20 20 17 17 17 18
6 7 7 8 8 7 7 9 11 12 7 10 11 14 16 17 17 19 19 19 19 19 19 19 19 20 18 19 20 18 16 16 17 18 19 20 20 20 19 20 19 17 15 15
5 5 6 7 8 7 7 8 11 14 14 14 12 13 16 17 17 17 17 17 18 18 18 17 17 17 15 15 17 16 16 15 16 16 19 18 19 18 17 18 17 17 15 13
5 6 6 7 8 7 7 11 12 12 13 13 12 13 15 17 18 19 18 17 17 17 15 17 17 18 18 17 17 16 16 15 14 16 17 16 15 17 17 17 16 16 14 13
5 4 6 7 8 7 7 9 11 12 11 12 13 15 16 16 17 17 18 17 17 15 16 17 17 18 18 17 17 18 16 15 15 13 14 11 15 18 17 15 15 15 14 13
4 4 6 6 7 8 8 9 9 10 10 14 15 15 16 16 16 15 15 15 15 15 16 15 15 14 15 15 16 16 16 15 12 9 11 15 15 16 16 15 13 13 12 11
4 4 6 6 7 8 7 8 8 9 10 8 11 15 15 13 13 13 14 14 15 15 14 13 10 9 15 16 17 18 17 16 12 7 10 13 14 15 16 16 10 12 13 10
4 4 5 6 7 7 7 7 8 10 11 11 12 10 12 15 14 11 15 14 14 14 11 12 9 12 16 15 17 16 15 15 14 10 8 12 14 14 17 12 11 11 11 11
4 5 5 6 7 7 7 7 8 9 10 9 10 10 11 12 11 11 14 11 13 11 11 11 11 12 14 15 17 17 15 12 12 11 10 9 14 14 13 12 12 12 11 10
4 4 5 6 6 7 7 7 8 9 9 9 10 9 10 10 10 12 13 11 12 11 10 9 11 12 11 13 12 17 12 13 12 12 11 14 14 14 13 13 13 11 11 9
4 4 5 5 6 6 7 8 8 8 9 9 9 9 9 10 11 11 11 10 11 11 11 11 8 10 10 10 12 14 14 16 13 12 14 12 12 12 12 11 11 10 10 9
4 4 4 5 6 6 6 7 7 8 8 7 8 8 8 9 10 10 11 10 10 11 11 7 3 4 12 10 11 11 13 15 14 13 13 11 10 11 11 10 10 9 9 8
4 4 4 5 5 6 6 6 7 8 9 6 8 8 8 8 9 9 10 10 10 10 10 4 2 11 10 11 10 9 14 12 11 9 12 10 9 10 11 10 9 8 8 6
3 4 4 5 5 5 6 6 6 7 8 9 4 8 8 8 8 8 8 9 9 10 10 9 11 12 11 6 8 14 15 14 15 12 11 11 9 9 9 9 8 7 7 6
3 4 4 4 4 5 6 6 6 7 8 8 6 7 8 8 8 8 8 8 8 8 9 9 9 10 11 4 5 13 13 13 13 12 11 9 9 8 8 8 7 6 6 5
4 4 4 4 4 5 6 6 6 6 7 7 1 5 7 8 8 8 8 7 7 7 8 9 9 10 11 5 11 13 13 13 11 11 11 11 8 8 7 6 6 6 5 4
3 3 4 4 4 5 5 5 5 6 6 6 6 4 3 7 7 7 8 8 3 7 7 8 9 7 4 9 12 13 13 12 10 9 9 8 7 6 5 5 5 5 4 3
3 3 3 4 4 5 4 4 5 6 5 6 6 8 5 7 8 7 7 8 3 4 5 9 4 6 11 12 12 12 12 11 11 8 6 6 6 5 5 4 4 4 4 3
2 2 2 3 4 4 4 3 3 3 3 5 6 8 5 8 5 4 7 4 4 5 7 7 7 6 8 9 9 10 10 9 8 8 7 6 6 5 5 4 4 4 3 3
2 3 3 3 4 3 1 1 4 2 4 5 6 8 8 7 8 6 6 4 4 6 7 3 4 7 7 7 7 7 7 7 7 6 6 6 5 5 5 5 4 4 3 2
4 4 3 3 3 2 3 3 3 1 7 6 7 6 7 7 7 5 3 3 3 6 4 7 5 7 6 5 5 5 5 6 6 5 5 5 4 4 4 4 3 3 2 2
4 2 2 0 2 1 2 3 3 6 7 7 7 7 7 7 5 5 5 5 5 4 4 4 4 4 4 4 4 4 4 4 5 5 4 4 4 4 4 3 3 2 2 1
5 4 1 2 5 5 6 7 7 7 7 7 7 7 7 4 4 5 6 6 6 7 5 3 3 3 3 3 3 2 3 3 4 3 3 3 3 3 3 2 1 1 1 0
5 6 4 6 5 6 7 8 7 7 7 7 7 6 4 5 4 6 6 7 6 4 3 3 3 1 1 2 1 2 2 2 3 2 2 2 2 2 2 1 0 0 -0 -1
3 5 6 7 6 5 7 8 7 7 7 5 7 6 6 7 4 5 5 4 2 3 2 2 1 1 1 0 0 0 1 1 1 1 1 1 1 1 1 1 0 -0 -1 -2

GFSNW_850_temp_339.txt.gz
Temp
6 7 7 7 8 9 9 9 7 9 10 10 6 7 10 15 16 19 19 18 18 18 16 16 16 17 18 18 17 17 16 15 17 19 18 18 18 19 16 14 17 14 13 13
5 6 6 7 8 8 8 9 9 9 9 7 6 8 13 15 16 16 17 17 18 17 17 16 16 17 18 18 16 17 16 14 15 17 17 16 16 16 18 15 13 15 13 13
5 5 6 6 7 8 8 9 6 9 9 8 8 11 13 15 17 17 17 17 17 17 16 16 17 17 16 17 16 16 15 13 14 14 16 16 17 15 14 15 13 13 13 13
5 4 5 6 7 7 7 8 7 9 6 7 8 10 12 13 16 17 17 16 15 17 16 16 15 16 16 16 16 15 13 13 15 15 15 14 14 13 13 13 14 14 13 11
4 4 4 6 6 7 7 8 8 9 9 10 8 9 12 12 15 16 16 14 14 14 14 16 16 15 15 15 15 14 12 13 14 14 14 14 13 12 12 13 13 12 12 11
4 3 4 4 5 5 7 8 8 9 9 7 8 8 12 13 15 15 16 14 12 12 14 16 16 16 16 16 15 13 13 12 11 13 12 13 11 12 13 12 11 11 12 11
3 3 3 3 4 5 7 8 8 9 9 8 9 12 12 14 14 14 13 15 13 15 16 16 16 16 16 16 15 15 12 11 10 11 11 8 12 13 12 10 10 10 10 9
2 3 3 3 4 6 7 7 8 8 7 9 11 13 13 12 13 12 13 14 14 15 16 11 11 10 13 15 14 13 13 10 9 8 9 12 13 14 13 13 11 9 9 8
2 3 3 3 4 6 6 6 7 8 8 7 8 11 13 9 9 10 13 14 15 16 9 9 8 9 12 14 15 12 11 10 10 6 9 12 12 13 13 12 9 11 10 8
2 2 3 3 4 6 6 6 7 7 9 8 9 9 10 12 10 8 12 14 14 14 7 9 7 10 12 12 13 13 11 10 10 7 6 9 12 13 13 11 10 11 11 10
2 2 2 3 4 6 6 6 7 8 9 8 9 10 11 11 12 9 12 10 11 8 9 8 7 9 10 12 13 14 12 9 9 8 9 10 13 13 12 11 11 11 10 10
2 3 2 3 4 7 6 7 7 8 9 8 8 9 10 10 12 13 11 10 9 10 6 7 6 9 8 9 11 11 11 10 9 9 9 10 11 13 13 13 12 10 10 9
2 2 3 4 5 6 6 7 7 8 8 8 9 9 10 11 12 12 12 11 11 11 10 8 6 9 6 8 9 12 11 12 9 9 10 10 11 11 12 11 11 10 10 9
2 2 3 4 5 6 6 7 8 9 9 7 8 8 9 9 10 12 13 13 12 11 11 8 3 4 8 7 9 9 10 11 8 7 9 10 11 11 11 10 10 9 9 8
3 3 4 4 6 6 6 7 8 9 10 5 7 8 8 9 10 11 11 12 12 11 10 5 4 7 7 6 6 8 10 9 8 8 11 10 11 10 10 10 9 9 8 6
3 4 4 5 5 5 6 7 8 9 9 9 3 7 7 8 9 10 11 11 11 10 10 7 8 9 8 3 6 10 11 12 12 12 12 11 11 10 9 9 9 8 7 7
4 4 5 4 5 6 7 8 8 9 10 9 5 6 7 8 8 8 9 10 9 10 8 8 8 9 9 1 3 10 11 12 12 11 11 9 9 9 9 9 8 7 6 5
4 4 4 5 5 6 7 7 8 9 10 9 1 3 7 8 8 7 7 8 8 7 7 7 7 8 7 4 9 10 11 10 10 10 11 11 10 8 8 7 7 6 5 5
4 4 4 4 5 6 6 6 7 8 9 7 4 2 3 7 7 7 7 7 2 6 5 6 7 3 3 7 8 10 9 10 10 10 10 9 9 7 7 6 6 6 5 4
4 4 4 4 6 6 6 6 7 8 7 7 4 5 4 7 6 5 6 5 -0 2 3 6 1 4 7 7 9 10 10 10 10 9 7 7 7 7 6 5 5 5 4 3
3 3 3 4 5 6 6 5 4 4 4 6 5 6 4 6 4 1 5 1 1 3 4 4 3 4 5 6 7 9 10 9 9 9 9 8 8 6 6 5 4 4 3 3
5 4 3 4 5 5 2 -1 1 0 3 4 5 6 7 6 7 6 4 2 1 5 4 1 3 3 5 5 6 6 7 7 8 8 8 6 6 6 5 4 4 4 3 3
4 3 2 4 2 -1 0 1 3 -1 2 4 5 4 7 7 6 3 1 2 2 2 1 4 3 4 5 5 6 7 7 7 7 7 6 6 6 5 4 4 4 3 3 2
4 3 1 -1 -0 -0 -0 1 1 4 5 6 7 5 6 5 4 2 4 2 2 2 2 3 2 4 4 5 6 6 6 6 6 6 5 5 5 4 4 3 3 3 2 1
4 3 -2 -0 2 2 3 4 4 5 6 7 6 5 6 1 2 1 2 3 3 3 3 1 4 4 4 4 4 4 5 5 5 5 5 4 4 4 4 3 3 2 1 1
4 4 1 1 1 0 3 4 4 5 6 8 8 3 3 3 2 4 3 3 4 3 2 4 4 3 3 3 3 3 4 4 4 4 4 4 4 3 3 2 2 1 0 -0
4 3 3 3 4 4 5 5 5 6 7 4 4 5 5 2 2 4 2 3 2 3 4 3 4 4 3 2 1 2 3 3 3 3 3 3 3 2 2 2 1 0 -0 -1

GFSNW_850_temp_345.txt.gz
Temp
3 6 6 7 7 8 9 9 8 9 11 10 5 9 9 12 15 16 16 17 17 17 16 16 16 17 16 15 15 18 16 16 17 18 18 17 17 17 17 19 17 14 16 16
4 6 6 7 7 7 8 8 8 8 10 9 8 8 10 12 15 15 16 16 16 15 15 16 16 16 16 15 15 16 16 15 17 18 19 18 17 16 15 15 15 14 16 16
4 4 5 6 7 7 8 8 7 8 9 8 8 10 11 14 15 15 15 15 16 15 15 14 16 16 15 15 14 14 15 14 15 17 16 15 15 15 14 16 16 14 14 14
4 4 5 6 6 7 7 6 7 8 7 7 8 9 11 12 15 15 15 15 15 16 16 15 15 16 16 16 15 14 15 14 13 13 14 14 13 14 15 15 14 15 14 14
3 4 4 5 6 6 6 6 7 8 7 7 8 8 10 12 13 14 16 15 14 15 15 16 15 15 15 16 15 14 13 14 14 13 14 15 14 14 14 13 13 14 14 13
3 3 4 4 5 5 5 6 7 8 6 6 8 8 10 11 12 13 13 14 14 14 14 15 15 15 15 15 15 14 13 13 13 14 13 14 14 13 13 12 12 13 13 12
3 3 3 4 4 4 6 6 7 8 7 7 8 9 10 12 12 13 12 14 14 14 15 15 15 15 14 14 12 12 13 12 11 13 13 12 13 13 13 13 12 11 12 11
3 3 3 4 4 4 5 6 7 7 7 7 9 10 10 11 11 11 12 13 13 14 15 12 13 12 14 13 11 12 12 11 10 12 12 12 13 13 13 13 12 12 12 9
3 3 3 3 3 3 5 6 6 7 7 8 8 10 11 10 10 11 11 12 13 15 9 11 10 12 12 13 13 12 11 11 13 9 11 12 13 13 12 12 13 11 10 9
2 2 3 3 2 3 5 6 6 6 7 7 8 9 10 11 10 10 11 12 13 13 10 10 11 12 12 13 13 13 12 11 12 10 11 12 13 12 12 13 13 10 9 9
2 2 3 2 2 3 5 6 6 6 7 7 8 9 10 10 11 11 11 12 12 10 10 10 9 11 11 12 12 13 13 12 12 11 12 12 10 12 13 12 10 10 10 9
2 2 2 2 2 3 5 6 6 6 7 7 7 8 9 10 11 12 10 11 10 11 9 8 8 9 9 10 13 11 13 13 13 12 13 9 10 11 11 11 11 10 9 8
1 2 2 2 2 3 6 6 6 6 7 8 8 8 9 10 12 12 13 11 12 12 11 8 7 10 8 11 11 11 11 10 11 10 10 9 9 10 11 11 10 9 9 8
1 2 2 2 2 3 6 6 6 6 8 7 7 8 9 10 12 12 13 14 13 12 11 8 5 8 6 9 10 11 11 10 10 8 9 9 9 10 10 10 9 9 8 7
1 2 2 2 2 3 5 5 6 7 7 6 7 8 8 9 11 12 13 13 12 12 10 6 6 6 7 5 7 9 9 10 11 12 11 11 9 9 9 9 8 8 8 6
1 2 2 2 2 3 4 4 6 7 8 8 6 7 8 9 9 10 11 12 12 11 10 6 7 7 8 8 9 9 9 10 10 10 11 11 10 9 9 9 8 7 6 6
2 2 2 2 3 4 4 5 7 8 7 8 5 6 7 8 9 10 10 10 10 10 8 7 7 7 8 6 8 10 9 10 10 10 10 8 9 8 8 8 7 6 6 5
1 1 2 2 3 4 5 7 7 8 9 9 3 4 7 7 8 8 8 9 9 8 6 6 6 7 6 7 8 9 9 9 9 9 10 11 9 8 7 7 7 6 5 4
1 1 2 3 3 4 6 6 6 8 10 7 5 5 5 6 6 7 7 8 5 5 5 5 6 5 6 8 8 8 8 9 9 9 10 9 9 8 7 6 6 6 4 4
1 1 3 3 4 5 5 7 8 9 9 8 4 4 5 6 5 4 5 5 3 6 4 4 6 6 6 7 7 8 8 8 9 9 7 7 7 7 6 6 5 5 4 3
1 3 4 4 4 4 5 6 6 5 4 6 5 5 5 5 5 4 4 3 2 6 5 6 5 6 5 6 7 8 8 8 9 9 10 9 9 7 6 5 5 4 4 3
3 5 4 4 3 3 3 1 1 3 5 3 4 5 6 5 6 5 3 4 3 6 2 4 6 5 3 4 6 7 7 7 8 9 9 7 7 6 6 5 4 4 3 2
4 5 2 3 0 -1 3 2 1 2 1 3 4 4 6 6 6 2 3 4 4 1 4 4 6 2 2 2 4 6 6 7 8 8 7 6 6 5 5 4 4 3 3 2
5 2 1 2 1 2 2 3 3 4 5 5 6 3 5 4 4 1 5 2 3 3 3 5 4 2 2 2 4 5 6 7 7 7 6 5 5 5 4 3 3 3 2 1
3 3 2 0 0 1 2 3 3 4 5 6 5 4 5 2 2 2 3 3 3 5 6 5 3 4 4 3 4 5 6 6 6 5 5 5 5 4 3 3 2 1 1 1
4 2 -0 -1 -0 -2 1 2 3 3 6 8 7 3 4 3 4 4 4 5 6 6 4 3 3 4 4 5 5 5 5 5 5 4 4 4 4 3 3 2 1 0 0 0
2 -1 1 1 2 2 3 4 4 5 7 4 4 5 5 2 4 5 4 5 5 4 3 3 5 5 5 5 4 4 4 4 4 4 4 4 3 3 2 1 0 -0 -1 -1

GFSNW_850_temp_348.txt.gz
Temp
4 4 6 6 7 8 9 9 13 10 11 14 13 16 16 13 18 17 20 20 21 21 20 20 21 21 20 18 19 22 20 22 22 22 21 22 22 21 22 22 21 20 21 18
4 5 6 7 7 8 8 10 9 9 10 15 15 13 15 15 18 19 20 20 20 20 20 19 20 20 18 17 19 20 20 21 21 21 21 22 21 20 20 20 21 19 20 18
4 4 5 7 7 8 8 9 12 10 10 9 15 15 16 17 16 18 18 19 20 20 20 20 19 20 18 17 17 15 18 19 19 21 19 20 19 20 21 21 20 19 18 17
3 3 4 6 7 7 8 8 11 10 13 12 13 14 16 17 18 18 18 20 21 21 19 20 19 20 20 19 17 18 20 18 18 19 19 19 19 19 20 19 18 18 17 17
3 3 4 4 6 7 7 8 10 9 10 11 13 12 15 17 17 18 19 20 19 21 20 21 19 20 20 20 20 19 18 17 18 17 19 19 18 18 18 18 18 17 17 16
3 3 3 4 6 6 6 7 8 9 8 11 14 14 15 15 16 15 16 20 20 20 18 18 18 17 17 18 20 18 18 17 18 17 17 18 17 17 17 17 17 17 17 15
3 3 3 4 5 6 6 7 7 10 11 12 14 13 15 15 16 17 15 16 19 15 14 16 17 17 17 17 17 17 18 18 17 17 17 14 16 17 17 16 16 16 16 15
3 2 3 3 5 5 6 6 7 9 12 13 12 13 14 14 13 15 15 14 13 14 16 18 18 17 18 17 16 17 18 18 16 15 16 16 16 16 16 16 16 16 15 14
2 2 3 3 4 4 5 7 8 7 11 12 10 13 14 15 15 14 13 11 13 14 17 17 15 16 17 16 16 16 17 18 18 14 14 15 17 16 15 16 16 15 14 13
2 3 3 3 3 4 5 6 7 7 9 8 9 13 14 13 14 16 14 14 14 13 18 17 16 16 17 16 16 16 17 17 17 16 15 16 16 15 15 15 15 14 13 12
2 2 3 3 3 4 5 6 7 7 8 8 8 8 11 12 14 16 13 15 14 16 17 16 15 16 16 16 17 17 17 16 16 16 16 14 15 15 16 14 12 12 11 10
2 2 3 3 3 4 5 5 7 7 6 7 8 9 9 10 11 12 11 14 14 15 16 15 14 14 14 16 16 15 16 17 17 17 16 13 13 14 12 13 12 11 10 8
2 2 3 3 3 4 5 5 7 7 7 8 9 8 9 10 11 11 14 12 12 12 12 14 13 14 15 15 16 16 15 14 16 16 14 13 12 11 11 11 10 10 8 7
2 2 3 3 2 4 5 5 6 7 7 8 8 9 9 10 11 12 12 13 14 13 11 11 11 13 11 14 14 16 15 15 15 13 13 12 11 11 10 9 8 8 7 6
1 2 3 3 2 3 4 5 6 7 6 8 9 8 8 9 11 12 12 12 12 12 11 9 11 10 12 11 13 14 14 15 16 16 13 14 12 9 9 9 8 7 6 5
1 1 2 3 2 3 4 5 6 7 7 8 10 8 8 8 9 11 11 12 12 11 11 10 9 8 11 13 14 12 11 11 11 12 11 12 9 9 8 8 7 6 5 5
1 1 2 2 2 3 4 5 6 7 6 7 8 9 8 9 9 10 9 11 10 10 9 10 11 11 11 12 13 12 10 10 9 9 9 8 8 8 7 7 6 5 4 4
0 1 1 2 2 3 4 5 6 7 7 7 7 8 9 8 9 9 9 9 9 8 9 9 11 10 11 12 13 11 9 9 8 8 10 9 7 7 6 7 6 4 3 3
0 1 1 2 3 3 4 5 7 7 6 7 9 10 10 7 7 7 8 8 9 7 10 10 10 11 10 13 11 10 9 9 8 8 8 7 7 7 6 5 4 4 3 3
0 1 1 3 3 4 5 5 5 6 7 6 9 8 9 8 8 8 9 7 9 10 9 7 10 12 10 8 8 7 7 8 8 7 6 6 5 5 5 5 4 4 3 3
-0 1 3 3 4 4 5 5 4 5 7 7 7 9 9 6 9 8 7 8 8 10 9 10 10 11 10 6 6 8 7 7 7 8 8 7 8 6 5 5 4 4 4 3
1 2 3 3 4 2 3 5 5 8 10 6 8 8 8 6 6 8 5 8 7 9 6 6 9 10 4 4 6 5 6 7 8 9 9 8 7 6 6 6 5 4 3 3
2 2 3 1 -0 2 4 3 7 8 6 5 6 7 7 6 7 7 8 7 7 5 5 8 11 4 2 3 6 7 6 7 8 8 8 8 7 6 6 5 4 3 3 2
2 2 2 2 3 6 9 10 9 7 7 7 8 6 8 6 8 7 7 6 7 5 5 9 10 3 2 2 5 6 6 7 8 8 7 6 6 5 4 4 4 3 3 2
3 4 5 4 5 5 6 6 5 5 7 7 7 7 8 7 6 7 5 4 6 9 11 10 6 2 2 2 4 6 7 7 7 6 6 6 5 4 4 3 3 2 2 2
3 3 4 4 4 3 4 6 6 6 7 9 9 9 9 8 8 7 7 9 11 11 10 5 2 2 2 2 4 5 6 6 6 5 5 5 4 4 3 2 2 1 1 1
3 2 3 4 6 5 5 6 5 6 8 10 9 9 9 7 8 9 10 10 10 6 3 2 3 4 3 3 4 5 5 5 5 4 4 4 3 3 2 2 1 1 0 0